JCSAT-5A

Last updated on Thu Nov 21 2024 00:02:40 GMT+0000 (Coordinated Universal Time)

1 29045U 06010A 24324.89268755 -.00000326 00000+0 00000+0 0 9992 2 29045 0.0168 297.4761 0002160 322.7802 252.5803 1.00272102 68011
UTC large
Height (km)
Speed (km/s)
/
Latitude / Longitude
Inclination (degrees)
Orbital Period (minutes)
Azimuth
Elevation
Range (km)
Doppler Factor

Next 0 passes for location: London (51.5072 / 0.1276)

Sorry there are no passes over London.